Location: Quedlinburg
(51.7921°N, 11.1414°E)
Time: 05:27:42
(UTC+02:00)

STRAND 1 - Pass Details

Date: 24 March 2026
Orbit: 761 x 775 km, 98.4° (Epoch: 16 April)

Event Time Altitude Azimuth Distance (km) Brightness Sun altitude
Rises 05:34:16 0° 180° (S) 3,230 ? -6.2°
Reaches altitude 10° 05:36:38 10° 185° (S) 2,306 ? -5.8°
Maximum altitude 05:41:34 49° 260° (W) 983 ? -5.1°
Drops below altitude 10° 05:46:31 10° 336° (NNW) 2,314 ? -4.3°
Sets 05:48:54 0° 342° (NNW) 3,243 ? -4.0°
